| time (UTC) | temp F | wind direction | speed knots | gust knots | rain 1hr in | rain 24hr in | rain mn in | humidity % | barometer mb |
| 20260506024003 | 52 | 4 | 1.7 | 6.1 | 0.00 | 0.00 | 0.00 | 78 | 1011.6 |
| 20260506023003 | 52 | 13 | 3.5 | 9.6 | 0.00 | 0.00 | 0.00 | 77 | 1011.3 |
| 20260506022003 | 52 | 5 | 1.7 | 8.7 | 0.00 | 0.00 | 0.00 | 78 | 1011.2 |
| 20260506021003 | 52 | 359 | 2.6 | 10.4 | 0.00 | 0.00 | 0.00 | 78 | 1011.0 |
| 20260506020003 | 52 | 3 | 1.7 | 7.8 | 0.00 | 0.00 | 0.00 | 78 | 1010.8 |
| 20260506015003 | 52 | 7 | 1.7 | 9.6 | 0.00 | 0.00 | 0.00 | 77 | 1010.5 |
| 20260506014003 | 52 | 4 | 2.6 | 10.4 | 0.00 | 0.00 | 0.00 | 78 | 1010.4 |
| 20260506013003 | 52 | 9 | 1.7 | 8.7 | 0.00 | 0.00 | 0.00 | 78 | 1010.0 |
| 20260506012003 | 52 | 357 | 2.6 | 8.7 | 0.00 | 0.00 | 0.00 | 78 | 1009.7 |
| 20260506011003 | 52 | 6 | 0.9 | 7.0 | 0.00 | 0.00 | 0.00 | 78 | 1009.7 |
| 20260506010003 | 52 | 11 | 0.9 | 7.0 | 0.00 | 0.00 | 0.00 | 77 | 1009.7 |
| 20260506005003 | 52 | 359 | 2.6 | 9.6 | 0.00 | 0.00 | 0.00 | 77 | 1009.7 |
| 20260506004004 | 53 | 7 | 1.7 | 7.8 | 0.00 | 0.00 | 0.00 | 77 | 1009.7 |
| 20260506003218 | 53 | 13 | 2.6 | 10.4 | 0.00 | 0.00 | 0.00 | 76 | 1009.6 |
| 20260506002003 | 53 | 358 | 4.3 | 10.4 | 0.00 | 0.00 | 0.00 | 75 | 1009.4 |
| 20260506001220 | 53 | 357 | 3.5 | 13.9 | 0.00 | 0.00 | 0.00 | 75 | 1009.2 |
| 20260506000003 | 53 | 360 | 3.5 | 13.9 | 0.00 | 0.00 | 0.00 | 74 | 1009.3 |
| 20260505235003 | 53 | 4 | 2.6 | 7.8 | 0.00 | 0.00 | 0.00 | 74 | 1009.6 |
| 20260505234004 | 54 | 18 | 0.9 | 5.2 | 0.00 | 0.00 | 0.00 | 74 | 1009.0 |
| 20260505233003 | 54 | 359 | 2.6 | 7.8 | 0.00 | 0.00 | 0.00 | 73 | 1009.4 |
| 20260505232003 | 54 | 357 | 2.6 | 10.4 | 0.00 | 0.00 | 0.00 | 73 | 1009.1 |
| 20260505231003 | 54 | 357 | 4.3 | 12.2 | 0.00 | 0.00 | 0.00 | 72 | 1008.9 |
| 20260505230003 | 54 | 3 | 2.6 | 9.6 | 0.00 | 0.00 | 0.00 | 73 | 1008.8 |
| 20260505225003 | 54 | 13 | 3.5 | 13.9 | 0.00 | 0.00 | 0.00 | 73 | 1008.6 |
| 20260505224003 | 54 | 17 | 3.5 | 11.3 | 0.00 | 0.00 | 0.00 | 72 | 1008.2 |
| 20260505223003 | 55 | 9 | 3.5 | 12.2 | 0.00 | 0.00 | 0.00 | 71 | 1008.3 |
| 20260505222221 | 55 | 5 | 3.5 | 11.3 | 0.00 | 0.00 | 0.00 | 71 | 1008.0 |
| 20260505221003 | 55 | 4 | 3.5 | 12.2 | 0.00 | 0.00 | 0.00 | 71 | 1007.8 |
| 20260505220003 | 55 | 356 | 5.2 | 14.8 | 0.00 | 0.00 | 0.00 | 72 | 1008.0 |
| 20260505215003 | 55 | 18 | 2.6 | 9.6 | 0.00 | 0.00 | 0.00 | 73 | 1007.9 |
| 20260505214003 | 55 | 17 | 2.6 | 8.7 | 0.00 | 0.00 | 0.00 | 74 | 1007.8 |
| 20260505213003 | 55 | 360 | 3.5 | 13.9 | 0.00 | 0.00 | 0.00 | 74 | 1008.0 |
| 20260505212003 | 55 | 359 | 3.5 | 12.2 | 0.00 | 0.00 | 0.00 | 74 | 1007.9 |
| 20260505211003 | 55 | 4 | 4.3 | 11.3 | 0.00 | 0.00 | 0.00 | 74 | 1007.6 |
| 20260505210003 | 55 | 350 | 4.3 | 14.8 | 0.00 | 0.00 | 0.00 | 74 | 1007.5 |
| 20260505205003 | 56 | 352 | 4.3 | 13.0 | 0.00 | 0.00 | 0.00 | 75 | 1007.5 |
| 20260505204220 | 55 | 351 | 4.3 | 13.0 | 0.00 | 0.00 | 0.00 | 75 | 1007.8 |
| 20260505203003 | 55 | 358 | 4.3 | 13.0 | 0.00 | 0.00 | 0.00 | 76 | 1007.6 |
| 20260505202003 | 56 | 353 | 4.3 | 14.8 | 0.00 | 0.00 | 0.00 | 76 | 1007.5 |
| 20260505201003 | 56 | 352 | 5.2 | 13.0 | 0.00 | 0.00 | 0.00 | 77 | 1007.4 |
| 20260505200003 | 56 | 349 | 4.3 | 16.5 | 0.00 | 0.00 | 0.00 | 77 | 1007.3 |
| 20260505195003 | 56 | 1 | 3.5 | 15.6 | 0.00 | 0.00 | 0.00 | 78 | 1007.3 |
| 20260505194003 | 56 | 2 | 3.5 | 8.7 | 0.00 | 0.00 | 0.00 | 78 | 1007.5 |
| 20260505193003 | 56 | 358 | 4.3 | 13.9 | 0.00 | 0.00 | 0.00 | 77 | 1007.3 |
| 20260505192003 | 57 | 14 | 3.5 | 9.6 | 0.00 | 0.00 | 0.00 | 78 | 1007.0 |
| 20260505191003 | 57 | 350 | 4.3 | 13.0 | 0.00 | 0.00 | 0.00 | 79 | 1006.9 |
| 20260505190004 | 57 | 360 | 4.3 | 12.2 | 0.00 | 0.00 | 0.00 | 80 | 1006.8 |
| 20260505185220 | 56 | 354 | 4.3 | 13.0 | 0.00 | 0.00 | 0.00 | 80 | 1006.9 |
| 20260505184003 | 56 | 11 | 3.5 | 11.3 | 0.00 | 0.00 | 0.00 | 82 | 1006.7 |
| 20260505183003 | 56 | 1 | 2.6 | 13.0 | 0.00 | 0.00 | 0.00 | 82 | 1006.8 |
| 20260505182003 | 56 | 6 | 2.6 | 6.1 | 0.00 | 0.00 | 0.00 | 83 | 1006.8 |
| 20260505181003 | 56 | 349 | 4.3 | 11.3 | 0.00 | 0.00 | 0.00 | 84 | 1007.0 |
| 20260505180004 | 56 | 348 | 4.3 | 13.0 | 0.00 | 0.00 | 0.00 | 84 | 1006.5 |
| 20260505175003 | 57 | 335 | 4.3 | 11.3 | 0.00 | 0.00 | 0.00 | 84 | 1006.2 |
| 20260505174003 | 57 | 350 | 4.3 | 13.0 | 0.00 | 0.00 | 0.00 | 85 | 1006.0 |
| 20260505173003 | 57 | 355 | 4.3 | 14.8 | 0.00 | 0.00 | 0.00 | 85 | 1005.9 |
| 20260505172003 | 57 | 360 | 2.6 | 7.8 | 0.00 | 0.00 | 0.00 | 85 | 1006.1 |
| 20260505171220 | 57 | 356 | 4.3 | 14.8 | 0.00 | 0.00 | 0.00 | 85 | 1006.2 |
| 20260505170003 | 57 | 360 | 2.6 | 9.6 | 0.00 | 0.00 | 0.00 | 85 | 1005.5 |
| 20260505165003 | 57 | 356 | 3.5 | 10.4 | 0.00 | 0.00 | 0.00 | 85 | 1005.5 |
| 20260505164003 | 57 | 5 | 3.5 | 9.6 | 0.00 | 0.00 | 0.00 | 85 | 1005.3 |
| 20260505163218 | 57 | 360 | 4.3 | 13.9 | 0.00 | 0.00 | 0.00 | 85 | 1005.2 |
| 20260505162003 | 58 | 360 | 4.3 | 12.2 | 0.00 | 0.00 | 0.00 | 85 | 1005.2 |
| 20260505161003 | 59 | 9 | 2.6 | 10.4 | 0.00 | 0.00 | 0.00 | 85 | 1005.1 |
| 20260505153219 | 61 | 359 | 3.5 | 7.8 | 0.00 | 0.00 | 0.00 | 84 | 1004.3 |
| 20260505152004 | 62 | 344 | 4.3 | 11.3 | 0.00 | 0.00 | 0.00 | 82 | 1004.1 |
| 20260505151003 | 64 | 343 | 4.3 | 12.2 | 0.00 | 0.00 | 0.00 | 82 | 1003.9 |
| 20260505125003 | 66 | 84 | 2.6 | 7.8 | 0.00 | 0.00 | 0.00 | 85 | 1002.6 |
| 20260505124003 | 66 | 80 | 0.9 | 5.2 | 0.00 | 0.00 | 0.00 | 85 | 1002.7 |
| 20260505123003 | 66 | 70 | 2.6 | 11.3 | 0.00 | 0.00 | 0.00 | 85 | 1002.6 |
| 20260505122003 | 66 | 72 | 1.7 | 7.0 | 0.00 | 0.00 | 0.00 | 85 | 1002.4 |
| 20260505121218 | 66 | 69 | 1.7 | 8.7 | 0.00 | 0.00 | 0.00 | 86 | 1002.5 |
| 20260505120004 | 66 | 76 | 1.7 | 7.8 | 0.00 | 0.00 | 0.00 | 86 | 1002.5 |
| 20260505115004 | 66 | 80 | 2.6 | 9.6 | 0.00 | 0.00 | 0.00 | 86 | 1002.4 |
| 20260505114003 | 66 | 75 | 0.9 | 7.0 | 0.00 | 0.00 | 0.00 | 86 | 1002.4 |
| 20260505113004 | 66 | 0 | 0.0 | 0.0 | 0.00 | 0.00 | 0.00 | 86 | 1002.4 |
| 20260505112217 | 66 | 40 | 0.0 | 3.5 | 0.00 | 0.00 | 0.00 | 86 | 1002.5 |
| 20260505111218 | 66 | 72 | 0.0 | 3.5 | 0.00 | 0.00 | 0.00 | 86 | 1002.4 |
| 20260505102218 | 66 | 73 | 3.5 | 11.3 | 0.00 | 0.00 | 0.00 | 86 | 1001.5 |
| 20260505101003 | 66 | 69 | 1.7 | 12.2 | 0.00 | 0.00 | 0.00 | 86 | 1001.3 |
| 20260505100003 | 66 | 67 | 1.7 | 9.6 | 0.00 | 0.00 | 0.00 | 86 | 1001.2 |
| 20260505095003 | 66 | 66 | 1.7 | 7.8 | 0.00 | 0.00 | 0.00 | 86 | 1001.2 |
| 20260505094003 | 66 | 73 | 1.7 | 7.0 | 0.00 | 0.00 | 0.00 | 85 | 1001.2 |
| 20260505093003 | 66 | 70 | 1.7 | 10.4 | 0.00 | 0.00 | 0.00 | 84 | 1001.2 |
| 20260505092219 | 66 | 75 | 2.6 | 8.7 | 0.00 | 0.00 | 0.00 | 84 | 1001.3 |
| 20260505091003 | 66 | 73 | 0.9 | 7.0 | 0.00 | 0.00 | 0.00 | 83 | 1001.3 |
| 20260505090003 | 66 | 67 | 1.7 | 7.0 | 0.00 | 0.00 | 0.00 | 82 | 1001.3 |
| 20260505085003 | 67 | 77 | 0.9 | 6.1 | 0.00 | 0.00 | 0.00 | 81 | 1001.3 |
| 20260505084004 | 68 | 76 | 1.7 | 7.8 | 0.00 | 0.00 | 0.00 | 80 | 1001.3 |
| 20260505083003 | 68 | 74 | 0.9 | 7.0 | 0.00 | 0.00 | 0.00 | 80 | 1001.4 |
| 20260505082003 | 68 | 76 | 1.7 | 7.0 | 0.00 | 0.00 | 0.00 | 79 | 1001.4 |
| 20260505081220 | 68 | 74 | 1.7 | 7.0 | 0.00 | 0.00 | 0.00 | 79 | 1001.4 |
| 20260505080004 | 68 | 74 | 1.7 | 7.8 | 0.00 | 0.00 | 0.00 | 79 | 1001.5 |
| 20260505075003 | 68 | 74 | 2.6 | 10.4 | 0.00 | 0.00 | 0.00 | 79 | 1001.6 |
| 20260505074218 | 68 | 73 | 0.0 | 0.9 | 0.00 | 0.00 | 0.00 | 79 | 1001.7 |
| 20260505073003 | 68 | 78 | 1.7 | 7.0 | 0.00 | 0.00 | 0.00 | 80 | 1001.9 |
| 20260505072003 | 68 | 70 | 0.0 | 3.5 | 0.00 | 0.00 | 0.00 | 79 | 1002.3 |
| 20260505071221 | 68 | 75 | 0.0 | 5.2 | 0.00 | 0.00 | 0.00 | 79 | 1002.3 |
| 20260505070004 | 68 | 79 | 0.0 | 1.7 | 0.00 | 0.00 | 0.00 | 79 | 1002.3 |
| 20260505065218 | 68 | 0 | 0.0 | 0.0 | 0.00 | 0.00 | 0.00 | 78 | 1002.6 |
| 20260505064219 | 69 | 0 | 0.0 | 0.0 | 0.00 | 0.00 | 0.00 | 77 | 1002.6 |
| 20260505063003 | 69 | 0 | 0.0 | 0.0 | 0.00 | 0.00 | 0.00 | 77 | 1002.9 |
| 20260505062003 | 69 | 0 | 0.0 | 0.0 | 0.00 | 0.00 | 0.00 | 77 | 1002.9 |
| 20260505061003 | 69 | 0 | 0.0 | 0.0 | 0.00 | 0.00 | 0.00 | 76 | 1002.7 |
| 20260505060004 | 69 | 0 | 0.0 | 0.0 | 0.00 | 0.00 | 0.00 | 76 | 1002.4 |
| 20260505055003 | 69 | 0 | 0.0 | 0.0 | 0.00 | 0.00 | 0.00 | 75 | 1002.2 |
| 20260505054003 | 69 | 124 | 0.0 | 7.0 | 0.00 | 0.00 | 0.00 | 75 | 1002.0 |
| 20260505053003 | 69 | 152 | 0.9 | 2.6 | 0.00 | 0.00 | 0.00 | 75 | 1001.8 |
| 20260505052221 | 70 | 143 | 0.9 | 5.2 | 0.00 | 0.00 | 0.00 | 74 | 1001.9 |
| 20260505051003 | 70 | 138 | 1.7 | 7.0 | 0.00 | 0.00 | 0.00 | 74 | 1001.6 |
| 20260505041003 | 70 | 134 | 2.6 | 8.7 | 0.00 | 0.00 | 0.00 | 70 | 1001.9 |
| 20260505040004 | 71 | 130 | 1.7 | 7.8 | 0.00 | 0.00 | 0.00 | 69 | 1001.9 |
| 20260505035219 | 71 | 141 | 1.7 | 9.6 | 0.00 | 0.00 | 0.00 | 69 | 1001.9 |
| 20260505034003 | 71 | 139 | 1.7 | 5.2 | 0.00 | 0.00 | 0.00 | 69 | 1002.4 |
| 20260505033003 | 71 | 136 | 1.7 | 10.4 | 0.00 | 0.00 | 0.00 | 68 | 1002.4 |
| 20260505032003 | 71 | 128 | 1.7 | 9.6 | 0.00 | 0.00 | 0.00 | 67 | 1002.5 |
| 20260505031003 | 71 | 141 | 0.9 | 4.3 | 0.00 | 0.00 | 0.00 | 66 | 1002.5 |
| 20260505030003 | 72 | 135 | 2.6 | 9.6 | 0.00 | 0.00 | 0.00 | 65 | 1002.7 |